• In Hungary
  • List of Countries
  • For 7 days
  • Water Temperature
  • Satellite Maps
  • Weather Map
  • News
  • Weather Widgets
  • user-avatar
    Login

    Hourly Weather Nawojowa

    Today, 18 November, Saturday

    Time Temperature Precipitation Wind Pressure Humidity
    00:00 +4°C° 0.3 mm 1 mps 732 mmHg 95%
    01:00 +4°C° 0 mm 1 mps 732 mmHg 95%
    02:00 +4°C° 0.3 mm 1 mps 732 mmHg 95%
    03:00 +4°C° 0.3 mm 1 mps 732 mmHg 95%
    04:00 +4°C° 0.3 mm 1 mps 731 mmHg 96%
    05:00 +3°C° 0.2 mm 1 mps 731 mmHg 96%
    06:00 +3°C° 0.2 mm 1 mps 731 mmHg 96%
    07:00 +3°C° 0 mm 1 mps 731 mmHg 96%
    08:00 +4°C° 0.1 mm 1 mps 731 mmHg 93%
    09:00 +4°C° 0.1 mm 1 mps 731 mmHg 91%
    10:00 +5°C° 0.1 mm 1 mps 731 mmHg 88%
    11:00 +5°C° 0 mm 1 mps 730 mmHg 86%
    12:00 +5°C° 0 mm 1 mps 730 mmHg 84%
    13:00 +6°C° 0 mm 1 mps 730 mmHg 82%
    14:00 +5°C° 0 mm 1 mps 729 mmHg 84%
    15:00 +4°C° 0 mm 1 mps 729 mmHg 86%
    16:00 +4°C° 0 mm 1 mps 728 mmHg 89%
    17:00 +3°C° 0 mm 1 mps 728 mmHg 89%
    18:00 +3°C° 0 mm 1 mps 728 mmHg 90%
    19:00 +2°C° 0 mm 1 mps 727 mmHg 91%
    20:00 +1°C° 0 mm 2 mps 727 mmHg 90%
    21:00 +1°C° 0 mm 2 mps 727 mmHg 89%
    22:00 +1°C° 0 mm 2 mps 726 mmHg 89%
    23:00 +1°C° 0 mm 2 mps 726 mmHg 88%

    Tomorrow, 19 November, Sunday

    Time Temperature Precipitation Wind Pressure Humidity
    00:00 +1°C° 0 mm 2 mps 726 mmHg 88%
    01:00 +1°C° 0 mm 2 mps 725 mmHg 87%
    02:00 +1°C° 0 mm 2 mps 725 mmHg 88%
    03:00 +1°C° 0 mm 2 mps 724 mmHg 88%
    04:00 +1°C° 0 mm 2 mps 724 mmHg 88%
    05:00 +1°C° 0.1 mm 2 mps 724 mmHg 89%
    06:00 +1°C° 0.1 mm 2 mps 724 mmHg 89%
    07:00 +1°C° 0.1 mm 2 mps 724 mmHg 89%
    08:00 +2°C° 0 mm 2 mps 724 mmHg 84%
    09:00 +2°C° 0 mm 3 mps 725 mmHg 79%
    10:00 +3°C° 0 mm 3 mps 725 mmHg 74%
    11:00 +3°C° 0 mm 3 mps 725 mmHg 71%
    12:00 +3°C° 0 mm 3 mps 724 mmHg 69%
    13:00 +4°C° 0 mm 3 mps 724 mmHg 66%
    14:00 +3°C° 0.1 mm 3 mps 724 mmHg 71%
    15:00 +2°C° 0.1 mm 2 mps 724 mmHg 76%
    16:00 +1°C° 0.1 mm 2 mps 724 mmHg 81%
    17:00 +1°C° 0 mm 2 mps 724 mmHg 82%
    18:00 +1°C° 0 mm 2 mps 724 mmHg 83%
    19:00 -1°C° 0 mm 2 mps 723 mmHg 84%
    20:00 -1°C° 0.1 mm 3 mps 723 mmHg 84%
    21:00 0°C° 0.1 mm 3 mps 724 mmHg 84%
    22:00 0°C° 0.1 mm 3 mps 724 mmHg 84%
    23:00 0°C° 0.1 mm 3 mps 724 mmHg 86%

    Day after tomorrow, 20 November, Monday

    Time Temperature Precipitation Wind Pressure Humidity
    00:00 0°C° 0.1 mm 3 mps 724 mmHg 87%
    01:00 0°C° 0.1 mm 3 mps 724 mmHg 88%
    02:00 0°C° 0.1 mm 3 mps 724 mmHg 88%
    03:00 -1°C° 0.1 mm 3 mps 724 mmHg 87%
    04:00 -1°C° 0.1 mm 3 mps 724 mmHg 87%
    05:00 -2°C° 0.4 mm 4 mps 724 mmHg 87%
    06:00 -1°C° 0.4 mm 4 mps 724 mmHg 87%
    07:00 -1°C° 0.4 mm 4 mps 724 mmHg 86%
    08:00 -1°C° 0.3 mm 5 mps 725 mmHg 85%
    09:00 -1°C° 0.3 mm 5 mps 725 mmHg 84%
    10:00 0°C° 0.3 mm 5 mps 726 mmHg 83%
    11:00 0°C° 0.4 mm 5 mps 726 mmHg 82%
    12:00 -1°C° 0.4 mm 6 mps 726 mmHg 80%
    13:00 -1°C° 0.4 mm 6 mps 726 mmHg 79%
    14:00 -1°C° 0 mm 5 mps 727 mmHg 81%
    15:00 -2°C° 0 mm 4 mps 727 mmHg 83%
    16:00 -1°C° 0 mm 3 mps 727 mmHg 85%
    17:00 -2°C° 0 mm 3 mps 727 mmHg 85%
    18:00 -2°C° 0 mm 2 mps 728 mmHg 86%
    19:00 -2°C° 0 mm 2 mps 728 mmHg 87%
    20:00 -2°C° 0 mm 2 mps 728 mmHg 87%
    21:00 -2°C° 0 mm 2 mps 728 mmHg 87%
    22:00 -1°C° 0 mm 2 mps 728 mmHg 88%
    23:00 -1°C° 0 mm 2 mps 728 mmHg 87%

    21 November, Tuesday

    Time Temperature Precipitation Wind Pressure Humidity
    00:00 -1°C° 0 mm 2 mps 728 mmHg 87%
    01:00 -1°C° 0 mm 2 mps 727 mmHg 86%
    02:00 -1°C° 0.2 mm 2 mps 727 mmHg 87%
    03:00 -1°C° 0.2 mm 2 mps 726 mmHg 88%
    04:00 -1°C° 0.2 mm 2 mps 725 mmHg 88%
    05:00 -1°C° 0.5 mm 2 mps 725 mmHg 90%
    06:00 -1°C° 0.5 mm 2 mps 724 mmHg 91%
    07:00 -1°C° 0.5 mm 2 mps 724 mmHg 93%
    08:00 +1°C° 0.4 mm 2 mps 724 mmHg 93%
    09:00 +1°C° 0.4 mm 2 mps 724 mmHg 94%
    10:00 +3°C° 0.4 mm 1 mps 724 mmHg 94%
    11:00 +3°C° 0.1 mm 1 mps 724 mmHg 94%
    12:00 +4°C° 0.1 mm 1 mps 724 mmHg 94%
    13:00 +4°C° 0.1 mm 1 mps 724 mmHg 94%
    14:00 +4°C° 0 mm 1 mps 725 mmHg 95%
    15:00 +3°C° 0 mm 1 mps 725 mmHg 96%
    16:00 +3°C° 0 mm 1 mps 725 mmHg 97%
    17:00 +3°C° 0 mm 1 mps 726 mmHg 97%
    18:00 +3°C° 0 mm 1 mps 726 mmHg 97%
    19:00 +2°C° 0 mm 0 mps 726 mmHg 97%
    20:00 +2°C° 0.1 mm 0 mps 727 mmHg 97%
    21:00 +2°C° 0.1 mm 0 mps 727 mmHg 97%
    22:00 +2°C° 0.1 mm 0 mps 727 mmHg 97%
    23:00 +1°C° 0 mm 0 mps 728 mmHg 97%

    22 November, Wednesday

    Time Temperature Precipitation Wind Pressure Humidity
    00:00 +1°C° 0 mm 0 mps 728 mmHg 96%
    01:00 +1°C° 0 mm 0 mps 728 mmHg 96%
    02:00 0°C° 0 mm 0 mps 728 mmHg 96%
    03:00 0°C° 0 mm 0 mps 728 mmHg 95%
    04:00 0°C° 0 mm 0 mps 729 mmHg 95%
    05:00 0°C° 0 mm 0 mps 729 mmHg 95%
    06:00 0°C° 0 mm 1 mps 729 mmHg 94%
    07:00 0°C° 0 mm 1 mps 729 mmHg 94%
    08:00 +2°C° 0 mm 1 mps 730 mmHg 92%
    09:00 +3°C° 0 mm 1 mps 730 mmHg 91%
    10:00 +3°C° 0 mm 2 mps 730 mmHg 90%
    11:00 +4°C° 0 mm 2 mps 730 mmHg 90%
    12:00 +4°C° 0 mm 2 mps 730 mmHg 91%
    13:00 +5°C° 0 mm 2 mps 730 mmHg 91%
    14:00 +4°C° 0 mm 2 mps 730 mmHg 92%
    15:00 +4°C° 0 mm 2 mps 730 mmHg 93%
    16:00 +3°C° 0 mm 2 mps 730 mmHg 94%
    17:00 +3°C° 0 mm 2 mps 730 mmHg 94%
    18:00 +3°C° 0 mm 2 mps 730 mmHg 94%
    19:00 +3°C° 0 mm 2 mps 730 mmHg 94%
    20:00 +3°C° 0 mm 2 mps 730 mmHg 93%
    21:00 +3°C° 0 mm 2 mps 731 mmHg 93%
    22:00 +3°C° 0 mm 2 mps 731 mmHg 92%
    23:00 +3°C° 0 mm 2 mps 731 mmHg 92%

    23 November, Thursday

    Time Temperature Precipitation Wind Pressure Humidity
    00:00 +3°C° 0 mm 2 mps 731 mmHg 91%
    01:00 +3°C° 0 mm 2 mps 731 mmHg 91%
    02:00 +3°C° 0 mm 2 mps 731 mmHg 91%
    03:00 +3°C° 0 mm 2 mps 731 mmHg 90%
    04:00 +2°C° 0 mm 2 mps 731 mmHg 90%
    05:00 +2°C° 0 mm 2 mps 731 mmHg 90%
    06:00 +2°C° 0 mm 2 mps 732 mmHg 89%
    07:00 +2°C° 0 mm 2 mps 732 mmHg 89%
    08:00 +4°C° 0 mm 2 mps 732 mmHg 88%
    09:00 +5°C° 0 mm 2 mps 732 mmHg 87%
    10:00 +5°C° 0 mm 3 mps 733 mmHg 87%
    11:00 +5°C° 0 mm 3 mps 732 mmHg 87%
    12:00 +7°C° 0 mm 3 mps 732 mmHg 86%
    13:00 +8°C° 0 mm 3 mps 732 mmHg 86%
    14:00 +7°C° 0 mm 3 mps 732 mmHg 88%
    15:00 +5°C° 0 mm 3 mps 732 mmHg 90%
    16:00 +4°C° 0 mm 3 mps 732 mmHg 91%
    17:00 +3°C° 0 mm 3 mps 733 mmHg 91%
    18:00 +3°C° 0 mm 3 mps 733 mmHg 91%
    19:00 +3°C° 0 mm 3 mps 733 mmHg 91%
    20:00 +3°C° 0 mm 3 mps 733 mmHg 91%
    21:00 +2°C° 0 mm 3 mps 734 mmHg 91%
    22:00 +3°C° 0 mm 2 mps 734 mmHg 91%
    23:00 +3°C° 0 mm 2 mps 734 mmHg 91%
    Show more